Location: Aulagny
(45.1643°N, 4.3096°E)
Time: 15:12:48
(UTC+00:00)

USA 116 - Pass Details

Date: 21 October 2019
Orbit: 405 x 834 km, 97.9° (Epoch: 18 November)

Event Time Altitude Azimuth Distance (km) Brightness Sun altitude
Rises 18:05:47 0° 15° (NNE) 2,374 6.8 -14.4°
Reaches altitude 10° 18:07:43 10° 17° (NNE) 1,532 5.8 -14.7°
Maximum altitude 18:10:57 73° 102° (ESE) 477 3.2 -15.3°
Drops below altitude 10° 18:14:29 10° 188° (S) 1,661 6.3 -15.9°
Sets 18:16:39 0° 191° (S) 2,600 7.3 -16.3°
